Home   Weather   Laredo   Past weeks

Flag for USA Past Weather in Laredo, Texas, USA — Yesterday and Last 2 Weeks

Now
61 °F

Clear.


Feels Like: 61 °F
Forecast: 57 / 87 °F
Wind: 8 mph from Southeast

Location: Laredo International Airport

Current Time: Apr 24, 2017 at 4:36:15 am

Latest Report: Apr 24, 2017 at 3:56 am


Visibility: 10 mi

Pressure: 29.98 "Hg

Humidity: 62%

Dew Point: 48 °F

Location of LaredoLocation

Past Weather in Laredo — Graph

°F

Laredo Temperature Yesterday

Maximum temperature yesterday: 77 °F (at 3:56 pm)
Minimum temperature yesterday: 60 °F (at 1:56 am)
Average temperature yesterday: 68 °F

High & Low Weather Summary for the Past Weeks

 TemperatureHumidityPressure
High93 °F (Apr 9, 4:56 pm)100% (Apr 12, 6:16 am)30.26 "Hg (Apr 12, 6:16 am)
Low60 °F (Apr 23, 1:56 am)26% (Apr 23, 3:56 pm)29.71 "Hg (Apr 21, 6:56 pm)
Average76 °F72%29.97 "Hg
* Reported Apr 9 2:56 am — Apr 24 2:56 am, Laredo, Weather by CustomWeather, © 2017

Note: Actual official high and low records may vary slightly from our data, if they occured in-between our weather recording intervals... More about our weather records

Advertising

Laredo Weather History for the Previous 24 Hours

Scroll right to see more
 ConditionsComfort  
Time TempWeatherWind HumidityBarometerVisibility
2:56 am
Mon, Apr 24
60 °FClear.3 mph62%30.00 "Hg10 mi
1:56 am63 °FClear.7 mph58%30.01 "Hg10 mi
12:56 am65 °FClear.7 mph52%30.03 "Hg10 mi
11:56 pm
Sun, Apr 23
65 °FClear.6 mph54%30.05 "Hg10 mi
10:56 pm67 °FClear.5 mph51%30.05 "Hg10 mi
9:56 pm69 °FClear.6 mph42%30.03 "Hg10 mi
8:56 pm71 °FClear.7 mph41%30.02 "Hg10 mi
7:56 pm74 °FSunny.6 mph29%30.01 "Hg10 mi
6:56 pm77 °FSunny.9 mph28%30.00 "Hg10 mi
5:56 pm77 °FSunny.3 mph28%30.02 "Hg10 mi
4:56 pm77 °FSunny.5 mph28%30.04 "Hg10 mi
3:56 pm77 °FSunny.14 mph26%30.07 "Hg10 mi
2:56 pm76 °FSunny.12 mph30%30.12 "Hg10 mi
1:56 pm74 °FSunny.8 mph31%30.16 "Hg10 mi
12:56 pm72 °FSunny.8 mph34%30.21 "Hg10 mi
11:56 am70 °FSunny.3 mph37%30.24 "Hg10 mi
10:56 am67 °FOvercast.9 mph42%30.26 "Hg10 mi
9:56 am66 °FPartly sunny.10 mph49%30.26 "Hg10 mi
8:56 am64 °FOvercast.12 mph49%30.26 "Hg10 mi
7:56 am61 °FOvercast.8 mph58%30.25 "Hg10 mi
6:56 am61 °FOvercast.3 mph78%30.22 "Hg10 mi
5:56 am60 °FOvercast.No wind80%30.20 "Hg10 mi
Weather by CustomWeather, © 2017

See weather overviewHow to use our weather pages